East Porterville
DateTemperatureDew Point
05/10 - 07:15 AM67.6°55.8°
05/10 - 07:00 AM63.5°59.1°
05/10 - 06:45 AM60.6°59.5°
05/10 - 06:30 AM58.9°58.6°
05/10 - 06:15 AM57.8°57.6°
05/10 - 06:00 AM57.3°56.9°
05/10 - 05:45 AM57.2°56.7°
05/10 - 05:30 AM57.4°56.3°
05/10 - 05:15 AM57.7°56.4°
05/10 - 05:00 AM57.9°56.3°
05/10 - 04:45 AM57.9°56.2°
05/10 - 04:30 AM58.3°56.2°
05/10 - 04:15 AM58.9°56.3°
05/10 - 04:00 AM59.5°56.5°
05/10 - 03:45 AM59.8°56.3°
05/10 - 03:30 AM59.5°56.1°
05/10 - 03:15 AM59.6°56.3°
05/10 - 03:00 AM59.9°56.6°
05/10 - 02:45 AM60.3°56.9°
05/10 - 02:30 AM60.6°57.2°
05/10 - 02:15 AM60.9°57.2°
05/10 - 02:00 AM61.4°56.9°
05/10 - 01:45 AM61.7°56.5°
05/10 - 01:30 AM62.1°56.8°
05/10 - 01:15 AM62.8°56.9°
05/10 - 01:00 AM63.7°56.7°
05/10 - 12:45 AM64.4°56.6°
05/10 - 12:30 AM64.7°56.8°
05/10 - 12:15 AM65.7°57.1°
05/10 - 12:00 AM67.5°57.1°
05/09 - 11:45 PM68.4°56.3°
05/09 - 11:30 PM69.3°56.5°
05/09 - 11:15 PM69.7°56.2°
05/09 - 11:00 PM69.8°56.1°
05/09 - 10:45 PM69.3°56.0°
05/09 - 10:30 PM67.6°55.9°
05/09 - 10:15 PM66.8°55.9°
05/09 - 10:00 PM67.1°56.2°
05/09 - 09:45 PM67.7°57.6°
05/09 - 09:30 PM68.4°58.3°
05/09 - 09:15 PM69.4°58.6°
05/09 - 09:00 PM70.6°58.6°
05/09 - 08:45 PM71.8°59.0°
05/09 - 08:30 PM72.5°58.5°
05/09 - 08:15 PM74.1°58.8°
05/09 - 08:00 PM76.4°58.6°
05/09 - 07:45 PM79.4°58.4°
05/09 - 07:30 PM82.1°58.2°
05/09 - 07:15 PM84.1°57.5°
05/09 - 07:00 PM85.5°57.1°
05/09 - 06:45 PM86.5°56.6°
05/09 - 06:30 PM87.5°56.8°
05/09 - 06:15 PM88.3°56.6°
05/09 - 06:00 PM89.1°56.4°
05/09 - 05:45 PM89.7°55.5°
05/09 - 05:30 PM90.2°55.3°
05/09 - 05:15 PM90.4°55.0°
05/09 - 05:00 PM90.6°54.2°
05/09 - 04:45 PM90.7°54.6°
05/09 - 04:30 PM90.9°55.8°
05/09 - 04:15 PM90.6°56.5°
05/09 - 04:00 PM90.5°56.9°
05/09 - 03:45 PM90.4°57.0°
05/09 - 03:30 PM90.8°57.0°
05/09 - 03:15 PM90.8°56.7°
05/09 - 03:00 PM90.7°57.4°
05/09 - 02:45 PM90.5°57.6°
05/09 - 02:30 PM90.0°57.5°
05/09 - 02:15 PM89.5°58.9°
05/09 - 02:00 PM89.7°58.5°
05/09 - 01:45 PM89.9°58.4°
05/09 - 01:30 PM89.4°57.8°
05/09 - 01:15 PM88.5°58.3°
05/09 - 01:00 PM87.7°58.0°
05/09 - 12:45 PM87.5°58.7°
05/09 - 12:30 PM87.2°59.9°
05/09 - 12:15 PM86.0°60.2°
05/09 - 12:00 PM85.3°60.3°
05/09 - 11:45 AM84.4°60.3°
05/09 - 11:30 AM83.2°60.1°
05/09 - 11:15 AM82.4°60.3°
05/09 - 11:00 AM82.2°60.4°
05/09 - 10:45 AM82.0°59.9°
05/09 - 10:30 AM81.2°59.5°
05/09 - 10:15 AM80.0°58.9°
05/09 - 10:00 AM79.3°58.0°
05/09 - 09:45 AM78.1°57.9°
05/09 - 09:30 AM77.7°57.5°
05/09 - 09:15 AM76.6°57.7°
05/09 - 09:00 AM74.5°57.3°
05/09 - 08:45 AM73.3°57.3°
05/09 - 08:30 AM72.5°57.2°
05/09 - 08:15 AM71.0°56.2°
05/09 - 08:00 AM69.5°56.0°
05/09 - 07:45 AM67.6°55.1°
05/09 - 07:30 AM66.2°54.9°
05/09 - 07:15 AM64.2°54.6°
05/09 - 07:00 AM61.5°55.0°
05/09 - 06:45 AM57.5°55.6°
05/09 - 06:30 AM54.5°54.3°
05/09 - 06:15 AM53.0°52.8°
05/09 - 06:00 AM52.5°51.7°
05/09 - 05:45 AM53.0°51.7°
05/09 - 05:30 AM54.0°52.1°
05/09 - 05:15 AM55.0°52.8°
05/09 - 05:00 AM55.5°53.6°
05/09 - 04:45 AM54.7°53.8°
05/09 - 04:30 AM52.7°52.0°
05/09 - 04:15 AM52.8°52.0°
05/09 - 04:00 AM52.8°52.2°
05/09 - 03:45 AM52.9°52.4°
05/09 - 03:30 AM53.3°52.5°
05/09 - 03:15 AM53.5°52.4°
05/09 - 03:00 AM53.9°52.5°
05/09 - 02:45 AM54.5°52.6°
05/09 - 02:30 AM54.9°52.6°
05/09 - 02:15 AM55.4°52.7°
05/09 - 02:00 AM55.6°52.2°
05/09 - 01:45 AM55.7°52.3°
05/09 - 01:30 AM56.2°52.9°
05/09 - 01:15 AM56.6°53.3°
05/09 - 01:00 AM57.2°53.6°
05/09 - 12:45 AM57.7°54.0°
05/09 - 12:30 AM58.3°53.7°
05/09 - 12:15 AM59.0°53.7°
05/09 - 12:00 AM59.8°54.1°
05/08 - 11:45 PM60.6°53.8°
05/08 - 11:30 PM61.1°53.1°
05/08 - 11:15 PM61.9°54.7°
05/08 - 11:00 PM62.8°54.7°
05/08 - 10:45 PM63.5°54.4°
05/08 - 10:30 PM64.2°54.0°
05/08 - 10:15 PM64.5°53.9°
05/08 - 10:00 PM65.5°54.5°
05/08 - 09:45 PM66.0°54.4°
05/08 - 09:30 PM66.7°54.9°
05/08 - 09:15 PM67.9°54.9°
05/08 - 09:00 PM68.9°54.1°
05/08 - 08:45 PM70.1°53.5°
05/08 - 08:30 PM71.7°53.4°
05/08 - 08:15 PM73.7°53.1°
05/08 - 08:00 PM76.1°53.8°
05/08 - 07:45 PM78.8°52.5°
05/08 - 07:30 PM81.3°51.2°
05/08 - 07:15 PM83.4°50.7°
05/08 - 07:00 PM84.8°50.7°
05/08 - 06:45 PM86.0°51.5°
05/08 - 06:30 PM86.9°51.1°
05/08 - 06:15 PM87.5°50.1°
05/08 - 06:00 PM88.0°51.9°
05/08 - 05:45 PM88.6°53.7°
05/08 - 05:30 PM88.8°54.5°
05/08 - 05:15 PM89.5°55.8°
05/08 - 05:00 PM90.0°57.2°
05/08 - 04:45 PM90.4°58.2°
05/08 - 04:30 PM90.6°59.8°
05/08 - 04:15 PM91.2°60.1°
05/08 - 04:00 PM91.4°60.2°
05/08 - 03:45 PM91.2°61.1°
05/08 - 03:30 PM91.3°61.7°
05/08 - 03:15 PM91.6°61.1°
05/08 - 03:00 PM91.3°59.9°
05/08 - 02:45 PM90.9°61.1°
05/08 - 02:30 PM90.1°61.9°
05/08 - 02:15 PM90.0°61.9°
05/08 - 02:00 PM89.4°63.1°
05/08 - 01:45 PM90.2°63.8°
05/08 - 01:30 PM89.8°63.6°
05/08 - 01:15 PM88.6°63.1°
05/08 - 01:00 PM87.4°62.8°
05/08 - 12:45 PM87.1°62.8°
05/08 - 12:30 PM87.0°63.2°
05/08 - 12:15 PM85.6°63.7°
05/08 - 12:00 PM84.6°63.5°
05/08 - 11:45 AM84.7°63.9°
05/08 - 11:30 AM84.2°63.4°
05/08 - 11:15 AM83.4°63.5°
05/08 - 11:00 AM82.4°63.0°
05/08 - 10:45 AM81.4°62.2°
05/08 - 10:30 AM80.7°62.0°
05/08 - 10:15 AM80.6°62.1°
05/08 - 10:00 AM79.8°61.8°
05/08 - 09:45 AM79.0°61.6°
05/08 - 09:30 AM77.8°61.1°
05/08 - 09:15 AM77.2°61.0°
05/08 - 09:00 AM76.6°61.4°
05/08 - 08:45 AM75.4°61.9°
05/08 - 08:30 AM73.1°61.5°
05/08 - 08:15 AM71.9°61.2°
05/08 - 08:00 AM70.8°61.3°